Hourly Data Report for July 05, 2022

CLYDE RIVER A
NUNAVUT
Current Station Operator: NAVCAN

70°29'09.000" N
68°31'01.000" W
26.50 m
2400804
71090
YCY

Download Data

Hourly Data (July 2022)
Hourly Data Report for July 5, 2022
TIME
LST
Temp Definition
°C
Dew Point Definition
°C
Rel Hum Definition
%
Precip. Amount Definition
mm

Wind Dir Definition
10's deg

Wind Spd Definition
km/h
Visibility Definition
km
Stn Press Definition
kPa
Hmdx Definition


Wind Chill Definition


Weather Definition


00:00 1.4 1.0 97 0.0 32 24 16.1 100.87     LegendNANA
01:00 1.9 1.0 94 0.0 32 28 16.1 100.85     LegendNANA
02:00 1.1 0.5 96 0.0 33 17 16.1 100.88     LegendNANA
03:00 1.2 0.5 95 0.0 33 24 16.1 100.88     LegendNANA
04:00 1.5 0.5 93 0.0 33 30 16.1 100.88     LegendNANA
05:00 1.9 0.7 92 0.0 33 26 16.1 100.90     LegendNANA
06:00 2.6 1.5 93 0.0 34 26 16.1 100.92     LegendNANA
07:00 3.2 1.6 90 0.0 34 22 16.1 100.91     LegendNANA
08:00 4.5 2.1 84 0.0 33 22 16.1 100.93     LegendNANA
09:00 5.7 2.7 81 0.0 35 21 16.1 100.94     LegendNANA
10:00 7.0 2.9 75 0.0 34 17 16.1 100.92     LegendNANA
11:00 7.2 2.9 74 0.0 33 17 16.1 100.94     LegendNANA
12:00 5.8 2.2 78 0.0 LegendMM 4 16.1 100.95     LegendNANA
13:00 6.5 2.6 76 0.0 23 8 16.1 100.96     LegendNANA
14:00 6.1 3.0 80 0.0 24 11 16.1 100.96     LegendNANA
15:00 5.5 2.3 80 0.0 25 13 16.1 100.96     LegendNANA
16:00 5.6 2.4 80 0.0 25 9 16.1 100.98     LegendNANA
17:00 5.3 1.8 78 0.0 25 13 16.1 100.99     LegendNANA
18:00 5.8 1.7 75 0.0 24 11 16.1 101.00     LegendNANA
19:00 5.3 1.3 75 0.0 25 13 16.1 100.99     LegendNANA
20:00 5.4 1.2 74 0.0 26 9 16.1 101.00     LegendNANA
21:00 5.6 1.0 72 0.0 27 8 16.1 100.99     LegendNANA
22:00 5.0 1.6 79 0.0 25 9 16.1 100.96     LegendNANA
23:00 4.4 1.1 79 0.0 26 8 16.1 100.94     LegendNANA

Notes on Data Quality.

Legend

  • E = Estimated
  • M = Missing
  • NA = Not Available*
  • [empty] = Indicates an unobserved value
Date modified: